Content
SEND FEEDBACK

Daily
Averages
Monthly
Summary
China

CHONGQING, CHINA


Home > Asia > China
Elevation: 1151 feet     Latitude: 29 31N     Longitude: 106 29E

WEATHER
 
SELECT A DAY
Number of Records: 134,509;   Date Range: 1/29/00 - 10/24/14
 
SHARE

PRINT THIS DATA

[ ← Previous Day ]
WEATHER ALMANAC - DECEMBER 17, 2013
[ Next Day → ]
[ °C ]   °F
Weather ElementAverageHighLow
Temperature42.5 °F51 °F (5:00 pm)35.6 °F (6:00 am)
Dewpoint39.6 °F44.6 °F (3:00 pm)35.6 °F (5:00 am)
Humidity88.8 %100 % (6:00 am)61 % (5:00 pm)
Barometer30.23 in30.32 in (11:00 pm)30.15 in (4:00 pm)
Wind Speed4.4 mph11.2 mph (9:00 pm)
Weather ElementAverage
Visibility1.7 mi
Wind DirectionSSW (188.4 °)

Weather ElementTotal
Precipitation---
Heating Degree Days21.7 (Base 65)
Averaged from 31 records on December 17, 2013
WEATHER CONDITIONS BREAKOUT
WIND DIRECTION BREAKOUT
WEATHER BY HOUR - DECEMBER 17, 2013
[ °C ]   °F
Local TimeTemperatureDewpointHumidityBarometerVisibilityWind DirectionWind SpeedGust SpeedPrecipitationEventsConditions
1:00 AM41.0 °F39.2 °F93 %30.24 in2.2 miNorth (360°)6.7 mphMist
2:00 AM45.0 °F43.0 °F91 %30.27 in2.0 miWNW (290°)2.2 mphMist
2:00 AM39.2 °F37.4 °F93 %30.24 in1.2 miNorth (10°)6.7 mphMist
3:00 AM39.2 °F37.4 °F93 %30.21 in1.9 miNorth (360°)4.5 mphMist
4:00 AM39.2 °F37.4 °F93 %30.21 in1.6 miNorth (350°)6.7 mphMist
5:00 AM44.0 °F43.0 °F95 %30.25 in1.0 miNW (320°)2.2 mphFogLight Fog
5:00 AM37.4 °F35.6 °F93 %30.21 in1.6 miNorth (360°)4.5 mphMist
6:00 AM35.6 °F35.6 °F100 %30.21 in0.2 miNorth (350°)4.5 mphFogFog
7:00 AM37.4 °F37.4 °F100 %30.21 in0.2 miNorth (360°)6.7 mphFogFog
8:00 AM43.0 °F42.0 °F95 %30.27 in1.0 miWNW (290°)2.2 mphFogPartial Fog
8:00 AM37.4 °F35.6 °F93 %30.21 in0.2 miNorth (360°)4.5 mphFogFog
9:00 AM39.2 °F37.4 °F93 %30.24 in0.1 miNorth (360°)4.5 mphFogFog
10:00 AM39.2 °F37.4 °F93 %30.27 in0.1 miVariable2.2 mphFogFog
11:00 AM45.0 °F43.0 °F92 %30.30 in2.0 miWNW (290°)4.5 mphMist
11:00 AM39.2 °F39.2 °F100 %30.27 in0.2 miVariable2.2 mphFogFog
12:00 PM41.0 °F39.2 °F93 %30.24 in0.4 miVariable2.2 mphFogFog
1:00 PM41.0 °F41.0 °F100 %30.21 in0.9 miVariable2.2 mphScattered Clouds
2:00 PM50.0 °F43.0 °F69 %30.23 in2.0 miNW (320°)2.2 mphHaze
2:00 PM42.8 °F41.0 °F93 %30.18 in1.2 miVariable2.2 mphScattered Clouds
3:00 PM44.6 °F44.6 °F100 %30.18 in3.1 miVariable2.2 mphMist
4:00 PM48.2 °F41.0 °F76 %30.15 in3.1 miEast (100°)4.5 mphMist
5:00 PM51.0 °F42.0 °F61 %30.20 in2.0 miEast (90°)2.2 mphHaze
5:00 PM48.2 °F41.0 °F76 %30.15 in3.7 miESE (110°)4.5 mph
6:00 PM46.4 °F41.0 °F81 %30.18 in1.9 miSE (130°)2.2 mphMist
7:00 PM44.6 °F39.2 °F81 %30.18 in1.6 miNE (50°)4.5 mphMist
8:00 PM47.0 °F43.0 °F81 %30.25 in2.0 miNW (320°)2.2 mphMist
8:00 PM42.8 °F37.4 °F81 %30.21 in3.7 miNorth (10°)8.9 mph
9:00 PM42.8 °F37.4 °F81 %30.24 in3.1 miNorth (10°)11.2 mphMist
10:00 PM41.0 °F37.4 °F87 %30.24 in3.1 miNorth (10°)8.9 mphMist
11:00 PM44.0 °F42.0 °F89 %30.32 in2.0 miWest (270°)2.2 mphMist
11:00 PM41.0 °F37.4 °F87 %30.27 in2.8 miNorth (360°)8.9 mphMist
Hourly data recorded from ZUCK, located miles away from Chongqing, China







STORIES FROM OUR PARTNERS